Wetbulb
66.38 66.42 66.60 66.59 66.79 66.61 65.89 65.39 65.80 65.61 66.17 64.62 64.77 65.59 65.60 66.18 66.58 66.55 65.45 64.82 64.62 65.30 64.70 63.73 64.13 65.07 66.38 67.72 65.79 65.49 63.98 63.64 57.29 58.09 59.96 60.43 59.65 59.49 59.79 60.13 60.99 60.15 59.87
65.91 66.30 65.90 66.30 66.62 66.49 65.69 65.10 65.92 65.17 65.46 64.67 65.12 64.72 64.81 65.76 66.19 64.75 63.44 63.78 63.98 63.81 64.44 63.75 62.59 64.50 65.29 66.20 65.54 64.27 63.93 62.21 58.37 56.03 58.31 58.83 59.23 60.29 59.66 60.38 61.32 61.73 60.96
65.66 65.67 66.06 65.84 66.45 66.38 65.48 65.75 65.18 65.09 64.50 64.72 64.85 64.03 64.67 65.12 64.63 64.70 63.90 63.33 64.94 63.53 61.99 61.82 63.44 62.84 64.61 64.80 63.76 62.82 62.23 60.74 59.00 57.17 57.29 59.41 59.80 59.70 59.56 60.68 60.40 60.92 62.26
65.14 65.18 65.76 66.10 66.31 66.04 65.96 65.52 64.76 64.58 64.13 64.61 64.97 64.80 65.06 65.15 64.76 64.76 65.19 64.90 64.10 63.16 62.58 62.54 62.72 63.27 63.88 63.62 63.03 62.09 60.92 58.92 59.06 58.97 58.53 58.55 59.15 59.86 59.13 57.85 57.53 59.77 59.65
64.58 64.80 65.51 66.03 66.23 65.46 64.97 65.05 64.91 64.64 64.64 65.38 64.99 64.82 65.29 65.39 64.28 64.80 64.99 65.34 65.07 64.85 64.48 63.23 63.57 61.89 60.76 62.99 62.59 62.18 61.10 59.24 59.31 58.63 57.81 57.85 57.33 57.67 56.83 57.57 56.72 57.75 59.25
64.14 64.72 65.37 65.47 65.18 65.17 65.15 64.94 64.87 64.83 65.26 65.39 64.75 64.91 65.28 63.35 52.34 53.88 59.67 65.28 65.11 64.41 62.89 62.45 63.89 61.08 57.57 54.81 56.47 57.78 60.95 61.10 59.17 58.27 57.65 57.17 57.49 56.89 56.11 55.56 56.23 55.58 55.01
64.23 65.16 64.95 64.85 64.43 64.53 64.94 64.68 64.92 66.16 67.00 65.54 65.76 65.23 65.21 63.55 50.84 50.66 52.40 65.37 65.90 65.09 64.87 63.75 63.61 64.03 62.81 61.96 54.23 53.87 54.03 53.95 56.36 59.77 57.94 57.45 56.29 56.34 55.15 57.29 59.41 59.27 59.08
64.06 64.77 64.70 64.37 64.26 64.70 64.91 64.65 65.39 67.29 66.33 66.05 66.11 65.93 65.44 61.83 49.21 48.85 49.92 65.85 65.97 65.11 65.20 65.02 64.99 64.80 63.40 62.68 63.12 61.31 60.92 60.27 60.44 60.78 59.72 59.59 58.49 56.90 61.41 63.10 62.33 64.43 63.00
63.93 64.41 64.34 65.02 64.80 64.82 64.65 64.83 66.01 66.94 67.00 66.74 66.41 65.48 64.86 62.82 48.31 47.76 54.78 65.75 65.03 64.22 64.38 65.82 65.65 64.59 50.94 52.20 62.18 60.38 58.87 57.51 53.85 53.38 55.06 53.71 51.88 52.38 58.75 63.30 60.87 61.70 59.48
64.07 64.79 65.20 65.62 65.40 65.09 65.78 66.14 66.59 66.53 65.47 65.48 65.49 65.75 59.84 63.59 47.58 47.04 54.86 65.05 65.10 64.92 65.60 62.79 51.50 60.42 49.38 51.33 63.68 60.60 59.06 59.36 60.08 60.80 61.48 56.63 56.17 58.78 52.80 65.52 64.64 61.62 62.13
64.56 65.47 65.49 65.95 65.75 66.29 65.93 66.35 66.43 65.94 65.70 65.94 65.04 65.51 65.47 63.61 60.16 47.58 49.94 63.88 64.84 64.24 63.45 63.54 61.96 45.54 47.74 50.26 56.01 63.85 61.33 62.19 58.70 62.86 63.02 63.39 64.49 65.03 63.67 65.55 66.27 61.79 62.08
64.16 65.32 65.76 66.17 65.77 66.21 66.20 65.35 65.07 65.50 65.66 65.34 65.10 64.37 64.42 64.65 55.04 48.48 47.58 53.27 56.30 63.63 63.19 63.78 58.21 44.59 47.39 50.70 57.91 47.47 47.25 57.00 64.28 63.84 63.59 63.62 63.12 61.36 63.05 66.20 68.61 68.39 66.99
63.29 64.83 65.72 66.23 66.15 66.63 66.10 64.56 63.62 64.77 64.40 64.57 63.84 64.50 63.25 63.92 62.66 48.02 49.39 49.58 52.18 65.47 65.27 54.13 44.90 43.84 43.51 48.42 45.55 47.65 48.86 64.13 63.57 62.83 62.15 62.39 63.27 64.26 67.14 67.17 66.69 64.86 64.45
62.89 64.21 64.90 65.39 65.15 66.02 65.49 64.62 62.94 62.81 63.27 63.92 62.51 62.99 63.69 63.26 63.64 63.73 63.63 61.27 51.47 58.66 52.10 56.42 55.36 52.50 48.37 53.41 54.43 54.26 63.87 64.33 63.53 63.73 64.37 64.69 65.56 65.34 64.59 64.78 62.35 60.68 58.58
63.18 63.14 63.87 64.31 64.94 65.29 65.47 64.20 63.98 65.15 60.82 62.56 63.75 64.40 64.04 63.71 63.51 58.82 59.88 64.17 65.36 61.13 62.78 63.15 62.91 63.51 63.41 60.84 60.85 62.40 63.32 64.19 63.74 65.17 62.93 62.34 62.58 62.86 62.24 62.54 60.85 58.92 56.80
63.71 62.69 62.69 63.00 63.84 64.99 64.20 64.10 43.62 47.66 47.26 48.65 46.16 55.89 63.02 52.80 48.54 47.14 47.66 47.91 46.10 48.94 61.96 62.18 62.12 62.33 62.40 62.56 62.05 61.81 62.51 59.75 62.66 62.93 62.62 62.00 60.78 60.51 60.28 60.60 60.21 58.80 57.35
65.01 64.84 62.53 60.33 62.53 63.41 64.28 63.68 62.98 56.97 46.99 48.10 46.96 45.21 47.43 51.23 46.35 45.24 43.01 42.58 43.82 48.24 63.22 63.08 62.82 62.89 62.65 62.47 62.43 62.30 61.46 62.24 64.54 62.69 63.04 62.30 60.95 60.72 58.03 59.36 59.10 58.52 58.54
65.38 51.81 63.50 61.47 61.77 61.71 63.30 64.36 64.36 63.32 62.19 61.95 49.12 50.12 44.08 43.17 43.70 42.94 41.78 47.89 58.74 55.04 62.78 63.03 62.70 62.51 62.72 62.69 62.70 62.30 62.04 62.83 62.52 62.34 62.85 62.39 61.96 60.58 59.76 58.87 58.95 58.72 59.01
63.96 62.93 63.38 62.48 61.66 59.93 61.66 62.22 63.55 63.44 63.33 62.83 62.44 49.82 44.79 39.85 39.25 39.85 42.13 61.03 60.00 59.61 59.79 60.43 61.57 61.64 61.72 61.54 61.82 61.62 62.48 62.48 62.41 62.84 63.04 62.83 62.84 61.88 60.78 59.75 58.96 49.82 52.98
64.48 55.25 58.03 62.68 61.76 61.34 61.00 61.56 61.27 61.24 61.52 61.39 61.35 60.91 59.32 53.25 56.66 56.70 57.77 60.81 60.87 60.59 60.17 59.70 60.50 61.69 61.47 61.26 61.73 61.47 61.15 60.79 60.76 61.70 62.47 62.93 62.98 62.75 61.27 60.60 59.35 58.63 57.28
63.64 63.70 57.54 62.01 61.79 61.40 60.70 60.84 61.29 61.04 61.04 61.27 61.35 60.73 50.92 60.49 60.74 60.45 59.54 59.63 59.87 60.75 61.82 62.06 61.69 61.56 61.71 62.51 62.88 62.25 62.05 61.86 61.94 61.45 61.35 62.02 62.67 61.28 62.37 61.74 60.84 60.11 58.49
64.53 64.38 63.62 62.41 61.87 61.51 61.47 60.96 61.27 61.02 60.89 61.24 61.79 59.99 43.38 62.41 61.29 61.59 62.41 62.49 61.61 62.46 62.64 63.44 62.43 62.40 62.09 61.93 62.01 62.04 61.95 61.88 62.28 62.41 61.95 61.04 61.33 61.77 61.84 61.34 60.08 59.49 56.52
65.18 64.79 64.48 63.91 63.34 57.66 61.98 61.55 60.87 61.06 60.92 61.08 61.44 61.52 60.35 63.06 62.51 62.21 63.06 64.37 64.75 63.85 63.43 63.38 63.81 63.34 63.46 63.80 63.84 62.57 61.34 60.83 62.07 62.90 62.41 61.86 61.23 61.12 61.46 60.63 59.60 58.90 54.65
65.69 65.03 65.46 64.62 63.73 63.12 63.50 63.87 62.16 54.63 60.83 61.24 62.25 61.71 62.51 63.48 63.41 63.41 63.37 64.63 65.49 65.78 65.75 64.68 64.12 63.33 64.25 64.84 64.04 63.64 62.95 62.66 62.30 61.57 61.54 61.59 61.46 59.32 60.54 60.09 58.97 58.11 53.47
65.23 66.09 66.24 66.47 64.58 64.08 64.23 64.05 63.80 64.34 62.84 62.77 63.07 63.03 62.32 63.70 63.54 63.91 64.21 64.25 65.11 65.70 65.97 66.08 65.74 64.33 63.84 63.68 63.90 63.47 57.70 40.04 58.10 52.66 61.90 61.57 60.82 61.32 59.56 58.71 58.34 55.83 50.44
64.61 64.93 66.32 66.24 66.22 64.98 64.87 65.27 65.16 65.30 64.47 64.55 64.29 64.28 64.23 63.84 63.55 64.82 65.21 65.11 64.70 64.93 66.09 66.05 66.03 65.54 64.46 63.60 63.67 55.71 41.05 37.79 50.76 39.95 61.02 62.70 60.84 60.05 59.55 58.17 56.72 52.71 45.13
MSLP
1002.80 1003.24 1003.73 1004.12 1004.72 1004.91 1005.33 1005.49 1006.13 1006.19 1006.23 1006.09 1006.05 1006.22 1006.21 1006.54 1006.65 1006.88 1007.17 1007.20 1007.16 1007.31 1007.69 1007.92 1007.85 1007.82 1007.76 1007.80 1007.98 1008.26 1009.08 1009.95 1011.18 1012.86 1013.50 1014.00 1014.66 1014.76 1015.85 1016.76 1017.43 1018.24 1018.96
1002.57 1003.00 1003.66 1004.08 1004.67 1005.11 1005.44 1005.58 1005.94 1006.32 1006.15 1005.99 1006.01 1005.98 1006.05 1006.58 1006.81 1007.20 1007.33 1007.35 1007.34 1007.52 1007.72 1007.89 1008.08 1008.07 1008.05 1008.24 1008.48 1008.96 1009.53 1010.49 1011.36 1012.83 1013.91 1014.57 1015.04 1015.98 1016.68 1017.49 1017.95 1018.68 1019.46
1002.22 1002.85 1003.50 1003.97 1004.76 1005.23 1005.39 1005.77 1005.71 1005.83 1006.01 1005.92 1005.91 1005.98 1006.49 1006.79 1007.21 1007.27 1007.41 1007.55 1007.38 1007.65 1008.19 1008.16 1008.16 1008.28 1008.44 1008.78 1009.11 1009.60 1010.25 1011.13 1012.01 1012.76 1014.07 1015.21 1015.74 1016.72 1017.36 1017.74 1018.53 1019.22 1019.69
1001.96 1002.52 1003.35 1004.14 1004.77 1005.19 1005.47 1005.68 1005.70 1005.82 1005.94 1005.96 1005.91 1006.40 1006.50 1006.70 1007.26 1007.26 1007.29 1007.51 1007.72 1008.10 1008.44 1008.57 1008.37 1008.41 1008.68 1009.09 1009.74 1010.34 1011.02 1011.91 1012.77 1013.47 1014.68 1015.44 1016.18 1016.98 1017.72 1018.19 1018.96 1019.59 1020.09
1001.75 1002.29 1003.40 1004.10 1004.45 1004.77 1005.33 1005.33 1005.56 1005.74 1005.67 1005.80 1006.15 1006.19 1006.73 1007.02 1007.43 1007.40 1007.53 1007.59 1007.68 1008.05 1008.35 1008.67 1008.87 1008.74 1008.85 1009.32 1010.07 1010.92 1011.65 1012.39 1013.21 1014.03 1014.96 1015.81 1016.62 1017.41 1018.11 1018.91 1019.31 1019.75 1020.17
1001.74 1002.25 1003.22 1003.67 1004.23 1004.76 1005.13 1005.35 1005.63 1005.78 1005.93 1006.16 1006.47 1006.50 1006.89 1007.53 1008.21 1008.31 1008.21 1008.00 1008.14 1008.38 1008.63 1009.16 1009.28 1009.49 1009.79 1010.11 1010.80 1011.57 1012.06 1012.57 1013.51 1014.33 1015.38 1016.21 1017.01 1017.81 1018.45 1018.89 1019.12 1019.31 1019.69
1001.62 1002.22 1002.97 1003.75 1004.29 1004.81 1005.05 1005.29 1005.60 1006.04 1006.08 1006.28 1006.59 1006.80 1007.14 1008.35 1008.89 1008.83 1008.59 1008.34 1008.45 1008.63 1008.90 1009.22 1009.52 1010.03 1010.40 1011.02 1011.65 1012.22 1012.84 1013.58 1013.91 1014.44 1015.33 1016.37 1017.28 1017.91 1018.31 1018.64 1018.77 1018.87 1019.10
1001.43 1002.05 1002.84 1003.54 1004.26 1004.65 1004.96 1005.33 1005.77 1006.28 1006.52 1006.61 1006.83 1007.16 1007.60 1008.80 1009.29 1009.16 1008.89 1008.57 1008.79 1009.05 1009.32 1009.52 1009.76 1010.39 1011.09 1011.48 1012.12 1012.89 1013.65 1014.26 1014.78 1015.23 1015.69 1016.45 1017.10 1017.86 1017.85 1017.75 1018.16 1018.31 1018.97
1001.30 1001.92 1002.64 1003.40 1004.05 1004.54 1005.14 1005.60 1005.89 1006.46 1006.78 1006.89 1007.09 1007.39 1007.87 1008.96 1009.62 1009.54 1009.21 1008.94 1009.16 1009.51 1009.75 1010.04 1010.31 1010.80 1011.62 1012.16 1012.54 1013.35 1014.20 1014.94 1015.49 1015.86 1016.39 1016.88 1017.52 1017.76 1017.35 1017.50 1017.80 1018.22 1018.45
1001.15 1001.78 1002.47 1003.20 1003.90 1004.35 1005.02 1005.58 1006.05 1006.24 1006.38 1006.86 1007.30 1007.71 1008.14 1009.10 1009.84 1009.87 1009.75 1009.55 1009.55 1009.83 1010.18 1010.94 1011.07 1011.66 1012.27 1012.44 1012.88 1013.54 1014.11 1014.98 1015.50 1016.32 1016.84 1017.22 1017.49 1017.38 1017.53 1017.07 1017.33 1017.34 1017.91
1001.03 1001.70 1002.42 1003.20 1003.95 1004.61 1005.33 1005.73 1005.92 1006.06 1006.40 1007.16 1007.50 1007.92 1008.37 1009.01 1009.91 1010.11 1010.09 1009.98 1009.90 1010.01 1010.34 1011.20 1012.10 1012.46 1012.65 1013.00 1013.27 1013.56 1013.91 1014.40 1015.30 1015.82 1016.25 1016.63 1016.73 1016.85 1016.77 1016.64 1016.64 1017.34 1017.51
1000.91 1001.62 1002.31 1003.30 1003.72 1004.56 1005.40 1005.80 1006.04 1006.38 1006.79 1007.48 1007.67 1007.91 1008.49 1009.27 1009.99 1010.31 1010.31 1010.18 1010.09 1010.01 1010.53 1011.39 1012.72 1012.85 1013.01 1013.11 1013.26 1013.43 1013.87 1014.29 1014.56 1014.95 1015.36 1015.89 1016.04 1016.30 1016.30 1016.25 1016.55 1017.34 1016.90
1000.79 1001.53 1002.35 1003.20 1003.60 1004.39 1005.19 1005.76 1005.99 1006.36 1006.30 1007.27 1007.42 1007.98 1008.40 1008.98 1010.03 1010.55 1010.65 1010.65 1010.56 1010.46 1010.94 1012.06 1012.84 1013.02 1013.04 1013.30 1013.44 1013.54 1013.68 1013.41 1013.55 1013.88 1014.30 1014.79 1015.25 1015.61 1015.78 1016.60 1017.17 1017.64 1017.78
1000.69 1001.48 1002.35 1003.10 1003.57 1004.24 1004.95 1005.55 1005.40 1005.79 1005.81 1005.92 1006.88 1007.34 1007.96 1008.73 1009.45 1010.27 1010.83 1011.11 1011.28 1011.63 1011.94 1012.45 1012.76 1012.87 1012.86 1013.28 1013.67 1013.80 1013.29 1012.88 1012.93 1013.03 1013.40 1013.92 1014.46 1015.41 1016.01 1016.60 1017.23 1017.71 1018.00
1000.58 1001.39 1002.15 1002.82 1003.52 1004.03 1004.60 1005.25 1005.22 1005.38 1005.68 1005.90 1005.97 1006.36 1007.06 1007.69 1008.88 1009.83 1010.40 1010.48 1010.60 1011.02 1011.50 1012.17 1012.25 1012.15 1012.32 1012.82 1012.88 1012.65 1012.22 1012.50 1012.57 1012.52 1013.04 1013.75 1014.63 1015.34 1015.66 1016.31 1016.71 1017.14 1017.55
1000.28 1001.06 1001.70 1002.18 1003.11 1003.40 1004.15 1005.06 1006.02 1006.23 1006.14 1006.50 1006.77 1006.76 1007.05 1007.51 1008.66 1009.77 1010.47 1010.67 1010.93 1011.25 1011.39 1011.43 1011.42 1011.38 1011.46 1011.73 1011.90 1012.12 1012.17 1012.69 1012.48 1012.52 1012.95 1013.63 1014.06 1014.47 1014.91 1015.54 1015.88 1016.36 1016.86
1000.00 1000.50 1001.12 1001.64 1002.20 1002.70 1003.24 1003.86 1005.09 1006.73 1006.77 1006.94 1007.38 1007.67 1007.94 1008.55 1009.01 1009.81 1010.52 1010.88 1011.13 1011.29 1010.79 1010.56 1010.51 1010.68 1010.80 1011.03 1011.32 1011.47 1011.75 1012.10 1012.36 1012.41 1012.67 1013.15 1013.46 1013.85 1014.42 1015.03 1015.47 1015.92 1016.15
999.72 1000.19 1000.62 1001.25 1001.30 1001.99 1002.42 1002.92 1003.60 1004.81 1006.05 1006.88 1007.53 1008.09 1008.48 1008.93 1009.34 1009.92 1010.48 1010.93 1011.44 1011.44 1010.41 1009.72 1009.71 1009.86 1010.05 1010.21 1010.43 1010.66 1010.93 1011.31 1011.81 1012.04 1012.25 1012.69 1013.16 1013.51 1013.99 1014.38 1014.70 1015.03 1015.33
999.00 999.51 1000.09 1000.33 1000.57 1001.10 1001.48 1002.08 1002.59 1003.11 1004.10 1005.16 1006.20 1008.16 1009.01 1009.57 1009.96 1010.17 1010.23 1009.94 1009.87 1009.97 1009.80 1009.21 1008.81 1008.92 1009.10 1009.36 1009.60 1009.83 1010.13 1010.44 1010.90 1011.53 1011.93 1012.18 1012.43 1012.76 1013.08 1013.55 1013.78 1014.14 1014.67
998.24 998.70 999.40 999.42 999.99 1000.39 1000.72 1001.12 1001.51 1001.91 1002.53 1003.40 1004.35 1006.14 1007.74 1009.10 1009.64 1009.84 1009.86 1009.31 1008.64 1008.46 1008.44 1008.41 1008.18 1007.93 1008.08 1008.37 1008.71 1009.10 1009.46 1009.93 1010.39 1010.66 1010.92 1011.23 1011.40 1011.73 1012.08 1012.39 1013.05 1013.47 1014.54
997.35 998.09 998.57 998.84 998.96 999.42 999.97 1000.17 1000.60 1000.99 1001.44 1002.07 1002.89 1003.99 1005.50 1007.15 1007.38 1007.68 1007.95 1007.99 1007.84 1007.40 1007.12 1007.16 1007.34 1007.55 1007.52 1007.65 1007.96 1008.29 1008.55 1008.90 1009.33 1009.70 1010.00 1010.29 1010.57 1010.96 1011.23 1011.44 1011.89 1012.55 1013.34
996.10 996.66 997.77 998.04 997.92 998.35 998.98 999.51 999.91 1000.16 1000.54 1001.02 1001.72 1002.62 1004.11 1005.19 1005.42 1005.54 1005.70 1005.96 1006.37 1006.58 1006.50 1006.36 1006.29 1006.34 1006.60 1006.86 1007.06 1007.34 1007.68 1008.07 1008.41 1008.60 1009.01 1009.66 1010.18 1010.30 1010.45 1010.89 1011.51 1012.04 1013.30
995.05 995.42 996.15 997.09 997.21 997.48 998.15 998.59 998.95 999.36 999.70 1000.12 1000.66 1001.34 1003.08 1003.14 1003.36 1003.57 1003.69 1003.99 1004.51 1004.97 1005.30 1005.49 1005.50 1005.54 1005.68 1005.90 1006.23 1006.54 1006.85 1007.03 1007.23 1007.75 1008.27 1008.75 1008.95 1009.06 1009.56 1010.26 1010.97 1011.71 1013.58
994.29 994.35 994.64 995.70 996.48 996.52 996.93 997.60 997.90 998.46 998.76 999.12 999.67 1000.10 1000.93 1001.70 1002.06 1002.36 1002.51 1002.68 1003.01 1003.38 1003.87 1004.25 1004.60 1004.84 1004.97 1005.14 1005.24 1005.29 1005.57 1005.88 1006.31 1006.80 1007.21 1007.52 1007.94 1008.56 1009.03 1009.46 1010.45 1011.47 1013.53
993.49 993.87 993.72 994.14 995.14 995.92 995.90 996.46 997.09 997.34 997.86 998.37 998.63 999.10 999.59 1000.04 1000.60 1001.07 1001.43 1001.80 1001.81 1002.05 1002.41 1002.92 1003.40 1003.62 1003.95 1004.13 1004.34 1004.56 1004.78 1005.52 1005.99 1006.18 1006.29 1006.76 1007.34 1007.81 1008.37 1009.23 1010.23 1011.73 1013.60
993.77 993.45 993.14 993.25 993.81 994.65 995.20 995.27 995.81 996.51 996.89 997.29 997.86 998.14 998.44 998.81 998.97 999.41 1000.03 1000.58 1000.85 1000.93 1001.23 1001.65 1001.98 1002.48 1002.71 1002.95 1003.38 1003.84 1004.44 1005.05 1005.53 1006.06 1006.36 1006.48 1006.69 1007.25 1007.86 1008.78 1010.02 1011.88 1014.40
Wind_Speed
10 9 6 6 5 5 4 4 5 4 4 4 4 4 3 4 2 2 2 2 4 5 4 3 1 2 2 3 4 4 6 9 11 8 7 12 13 14 12 11 11 10 7
10 9 7 7 4 4 5 5 10 5 5 4 3 1 6 3 6 4 1 2 5 5 1 2 1 4 4 7 6 8 8 12 14 16 12 10 12 13 13 10 9 8 9
10 10 7 6 5 5 6 5 6 7 6 4 3 3 8 4 5 5 4 2 2 6 4 0 4 5 8 8 9 10 9 10 12 14 12 9 8 10 9 10 9 8 6
10 9 8 7 5 6 4 7 7 6 6 5 4 8 4 9 7 2 4 6 4 7 6 2 2 4 11 10 11 13 13 13 13 11 10 10 6 8 8 9 7 5 6
9 8 8 7 8 8 6 7 7 6 7 4 5 6 4 8 4 5 5 5 7 8 7 5 4 4 9 11 11 12 15 12 9 12 8 10 9 8 9 6 7 7 5
9 11 9 8 8 8 7 7 7 4 3 4 5 5 6 8 9 10 8 4 8 9 8 8 8 13 15 14 15 12 13 15 12 9 9 10 8 8 8 7 8 8 6
10 11 10 9 9 9 9 9 8 4 3 5 4 4 8 7 6 7 9 3 9 9 10 8 8 10 14 15 17 17 16 13 9 11 14 11 12 11 10 6 9 7 7
11 11 11 11 10 10 8 7 6 5 4 4 5 8 7 7 2 5 9 6 8 10 10 10 11 12 14 13 16 14 12 12 11 8 11 12 11 12 12 9 10 6 9
12 12 12 12 11 10 6 7 6 6 5 5 7 7 8 7 2 3 8 8 8 8 8 11 11 15 12 14 15 14 12 8 9 11 10 10 14 14 11 8 8 8 9
13 12 13 12 10 9 8 8 6 5 4 7 8 7 9 9 3 4 7 6 10 8 11 8 13 12 10 9 15 12 13 11 12 10 7 6 9 11 9 8 10 9 8
14 13 13 12 11 11 8 6 6 5 7 8 8 7 9 10 6 6 5 5 8 9 11 11 9 8 10 10 11 11 14 13 14 11 10 8 9 8 8 6 5 5 10
14 14 13 13 10 10 9 7 6 6 7 7 7 7 8 9 7 7 5 1 1 10 11 11 7 6 10 10 9 11 13 14 11 11 10 10 10 9 9 6 4 2 3
15 14 13 14 10 11 9 8 7 6 7 8 7 7 7 8 7 6 7 7 10 6 9 12 12 8 12 10 9 11 13 9 9 10 9 9 9 9 8 6 5 7 7
15 14 13 12 10 11 9 8 7 7 5 9 8 6 8 8 8 9 7 7 10 9 11 9 6 7 4 10 7 5 8 8 8 9 9 10 9 9 7 7 7 6 6
15 14 13 12 11 11 9 7 7 6 4 5 5 8 8 9 10 11 10 9 8 10 10 8 7 8 9 9 8 8 7 6 8 7 8 8 7 8 8 9 8 8 6
14 13 12 11 12 11 10 8 11 9 9 10 11 6 6 9 18 14 10 9 10 13 7 7 6 7 8 9 9 8 7 7 7 7 8 8 9 9 9 9 8 8 8
13 13 12 11 12 11 11 10 10 4 9 9 11 11 7 13 16 15 12 10 8 10 8 9 9 9 9 9 9 9 9 8 7 8 8 8 9 9 8 9 9 9 10
15 13 11 12 12 12 12 11 10 12 10 9 2 5 9 9 13 13 13 11 6 5 10 9 9 9 9 10 10 10 10 10 10 9 9 9 8 9 9 10 10 10 10
16 13 13 13 12 12 11 12 11 12 12 12 12 5 9 10 8 7 12 11 11 11 11 10 9 10 10 10 10 10 10 9 9 9 8 9 9 10 10 11 11 11 10
16 15 15 12 12 12 11 12 11 11 11 12 12 14 11 9 9 9 10 11 12 11 12 13 12 10 11 11 11 10 9 8 9 9 10 9 9 10 11 11 11 10 9
14 15 15 14 13 13 12 12 12 11 11 11 12 14 17 14 14 14 13 13 14 13 12 12 12 12 12 11 10 10 11 10 10 10 10 11 10 10 10 10 10 11 10
14 14 15 15 13 13 13 13 13 13 13 13 12 10 19 15 14 14 14 14 14 14 12 11 12 12 12 12 11 11 12 12 11 11 11 11 10 11 11 10 11 9 10
15 16 16 14 14 13 12 13 13 13 13 13 13 12 13 14 13 13 13 12 13 12 13 13 12 12 11 10 10 10 11 12 11 11 10 11 12 11 11 10 10 9 11
16 17 16 15 14 14 14 13 13 15 15 14 13 12 13 14 13 14 12 12 12 12 12 11 12 15 12 12 11 12 11 11 10 11 16 12 12 10 11 10 11 10 11
15 15 14 14 14 14 13 14 14 13 14 12 11 12 13 13 14 13 12 12 11 12 13 12 11 15 19 20 17 18 14 9 11 9 10 12 13 12 10 9 9 11 13
15 15 14 13 13 13 14 13 13 13 13 12 12 11 12 13 13 14 13 13 13 13 14 12 14 20 20 18 21 18 8 9 10 10 10 9 10 10 10 11 13 11 15
Wind_Direction
161 169 129 147 173 163 132 161 147 156 148 201 167 182 142 97 104 88 83 196 202 224 151 238 7 289 192 127 106 127 131 119 114 107 111 118 112 111 106 109 120 113 113
167 165 145 160 197 124 168 155 139 207 174 201 182 66 83 96 67 64 96 238 193 195 66 230 186 264 140 100 96 96 95 123 129 128 127 109 120 117 122 148 119 111 119
172 158 150 147 162 160 164 133 176 153 180 194 176 173 85 87 120 100 108 110 165 106 103 283 141 196 120 110 102 102 102 121 128 127 122 136 111 121 127 95 106 109 115
170 160 142 139 155 172 147 159 163 174 168 183 195 95 163 121 97 98 126 133 152 131 138 146 153 141 126 123 113 114 113 120 124 126 132 124 115 105 101 112 108 107 125
167 152 106 124 169 142 157 153 158 166 191 156 103 136 120 93 66 34 53 107 116 126 139 140 59 67 131 129 129 127 125 131 123 118 121 116 112 120 115 114 114 129 116
167 133 161 132 136 136 143 148 164 163 159 137 175 140 133 84 35 26 1 90 111 96 110 96 99 91 78 80 97 108 135 137 133 121 129 128 108 115 119 136 130 140 137
170 140 136 140 137 146 156 163 156 140 161 148 133 93 97 100 39 6 347 32 109 112 107 96 103 107 107 101 90 93 85 87 101 132 129 130 126 136 145 156 149 160 148
165 151 142 149 146 152 157 141 149 128 144 135 143 146 129 102 89 335 319 102 109 120 123 132 121 120 118 120 116 106 99 111 113 118 128 135 146 154 165 168 172 150 124
162 154 153 147 152 152 143 151 155 138 151 153 149 144 135 121 150 314 310 95 111 109 130 128 124 119 117 121 124 110 102 99 91 106 124 157 154 179 203 158 167 165 156
163 162 153 153 149 147 137 148 152 176 158 104 120 141 116 116 115 356 332 97 119 106 106 103 65 106 97 146 123 122 127 140 141 141 156 153 178 179 217 217 169 182 152
162 165 155 150 155 130 136 145 159 196 104 107 117 109 121 116 114 27 14 136 131 128 116 116 103 70 86 95 145 143 138 148 151 164 170 178 174 174 195 207 199 160 172
166 168 157 150 173 144 146 148 161 125 131 125 129 131 125 117 105 84 59 175 16 124 124 116 103 72 90 103 138 132 139 150 163 164 166 170 170 180 187 199 123 176 351
169 168 166 163 185 149 160 162 153 186 149 154 153 151 132 128 128 94 81 58 42 113 115 105 126 126 106 92 109 129 158 172 161 164 165 169 174 182 154 142 124 105 91
171 171 170 174 187 160 175 176 177 181 181 163 150 151 149 155 144 146 141 127 117 99 119 132 127 120 96 114 142 166 212 164 172 175 169 168 164 143 166 173 164 160 132
174 175 176 183 190 169 200 178 201 180 172 184 153 154 159 157 153 151 161 160 166 147 141 149 166 169 155 161 165 188 178 169 195 169 159 150 162 176 178 175 181 173 168
177 180 183 185 181 184 192 162 50 51 83 65 67 49 115 109 129 138 130 136 126 141 161 174 182 186 183 176 180 185 178 191 203 181 174 178 184 186 179 183 188 189 183
187 181 183 202 177 199 191 192 178 93 65 56 60 68 40 137 136 132 118 107 133 160 216 191 192 196 200 195 200 198 197 191 213 205 197 194 200 199 179 192 199 199 208
185 186 199 200 189 198 194 198 190 178 186 188 215 93 112 132 139 135 135 142 163 215 220 211 206 202 208 209 206 209 207 201 202 219 208 205 207 206 198 212 207 209 213
183 193 204 187 206 195 196 201 199 192 185 191 177 146 105 88 91 119 165 196 195 202 212 231 221 212 210 214 216 217 217 213 205 205 221 217 210 214 215 209 223 210 203
189 201 188 205 201 194 206 200 202 205 192 194 188 181 164 156 177 184 199 218 219 210 213 218 233 229 215 216 213 216 216 211 212 210 216 222 217 215 223 220 220 220 204
194 191 194 213 197 198 205 202 205 203 201 197 199 184 167 191 196 198 197 210 221 230 224 218 220 225 231 227 220 217 220 220 212 216 218 219 222 220 220 230 217 224 186
198 196 192 208 208 201 200 207 206 209 206 205 203 182 156 188 204 208 207 204 215 224 233 232 230 226 222 226 223 222 220 219 220 216 218 221 226 225 226 221 228 209 180
211 204 189 204 215 202 190 205 208 211 212 210 209 188 182 197 209 211 211 208 205 213 219 229 232 231 232 228 224 225 224 225 223 217 219 217 221 226 218 221 223 204 178
210 215 206 194 211 210 204 200 211 209 214 214 210 216 185 201 211 221 225 216 210 211 210 222 222 235 231 229 226 223 225 222 221 222 223 222 222 223 227 219 216 195 168
218 219 218 196 201 215 210 206 207 216 207 222 219 209 222 200 204 216 215 227 226 212 214 211 222 226 231 235 229 230 228 202 223 231 228 220 226 231 228 217 209 167 148
231 236 231 210 193 206 216 206 207 203 217 207 215 224 215 219 220 202 206 217 225 226 213 213 215 224 228 227 233 235 212 178 189 208 235 247 225 222 217 199 189 148 145